When you browse on this site, cookies collect data to enhance your experience and personalize the content and advertising you see.
Visit our Privacy Policy to learn more. By continuing to use the site, you agree to this use of cookies and data.
  • In Lithuania
  • List of Countries
  • For 7 days
  • Water Temperature
  • Satellite Maps
  • Weather Map
  • Weather Widgets
  • user-avatar
    Login

    Hourly Weather Kirov

    Today, 24 July, Wednesday

    Time Temperature Precipitation Wind Pressure Humidity
    00:00 +26°C° 0 mm 1 mps 752 mmHg 52%
    01:00 +25°C° 0 mm 1 mps 751 mmHg 53%
    02:00 +25°C° 0 mm 1 mps 751 mmHg 53%
    03:00 +24°C° 0 mm 1 mps 751 mmHg 54%
    04:00 +24°C° 0 mm 1 mps 751 mmHg 55%
    05:00 +24°C° 0 mm 2 mps 751 mmHg 55%
    06:00 +24°C° 0 mm 2 mps 751 mmHg 56%
    07:00 +25°C° 0 mm 2 mps 751 mmHg 56%
    08:00 +25°C° 0 mm 2 mps 751 mmHg 57%
    09:00 +26°C° 0 mm 2 mps 750 mmHg 58%
    10:00 +27°C° 0.2 mm 3 mps 750 mmHg 57%
    11:00 +28°C° 0.2 mm 3 mps 750 mmHg 56%
    12:00 +28°C° 0.2 mm 4 mps 750 mmHg 55%
    13:00 +29°C° 0.6 mm 3 mps 750 mmHg 53%
    14:00 +29°C° 0.6 mm 3 mps 750 mmHg 52%
    15:00 +30°C° 0.6 mm 2 mps 750 mmHg 51%
    16:00 +30°C° 0.1 mm 2 mps 750 mmHg 51%
    17:00 +30°C° 0.1 mm 2 mps 750 mmHg 51%
    18:00 +30°C° 0.1 mm 2 mps 750 mmHg 50%
    19:00 +28°C° 0.2 mm 2 mps 750 mmHg 57%
    20:00 +26°C° 0.2 mm 2 mps 750 mmHg 64%
    21:00 +25°C° 0.2 mm 2 mps 750 mmHg 71%
    22:00 +24°C° 0.3 mm 2 mps 750 mmHg 74%
    23:00 +23°C° 0.3 mm 1 mps 750 mmHg 77%

    Tomorrow, 25 July, Thursday

    Time Temperature Precipitation Wind Pressure Humidity
    00:00 +23°C° 0.3 mm 1 mps 750 mmHg 79%
    01:00 +22°C° 0 mm 1 mps 750 mmHg 80%
    02:00 +22°C° 0 mm 1 mps 750 mmHg 80%
    03:00 +22°C° 0 mm 1 mps 750 mmHg 81%
    04:00 +20°C° 0 mm 0 mps 750 mmHg 80%
    05:00 +20°C° 0 mm 0 mps 750 mmHg 80%
    06:00 +20°C° 0 mm 0 mps 750 mmHg 80%
    07:00 +22°C° 0 mm 0 mps 750 mmHg 73%
    08:00 +24°C° 0 mm 0 mps 750 mmHg 67%
    09:00 +27°C° 0 mm 1 mps 750 mmHg 61%
    10:00 +28°C° 0.7 mm 1 mps 750 mmHg 55%
    11:00 +29°C° 0.7 mm 2 mps 750 mmHg 50%
    12:00 +30°C° 0.7 mm 2 mps 750 mmHg 44%
    13:00 +31°C° 0 mm 3 mps 750 mmHg 41%
    14:00 +31°C° 0 mm 3 mps 750 mmHg 39%
    15:00 +32°C° 0 mm 4 mps 750 mmHg 36%
    16:00 +32°C° 0 mm 4 mps 750 mmHg 38%
    17:00 +30°C° 0 mm 5 mps 750 mmHg 39%
    18:00 +30°C° 0 mm 5 mps 750 mmHg 41%
    19:00 +28°C° 0 mm 4 mps 750 mmHg 47%
    20:00 +26°C° 0 mm 4 mps 750 mmHg 52%
    21:00 +25°C° 0 mm 3 mps 751 mmHg 58%
    22:00 +24°C° 0 mm 3 mps 750 mmHg 62%
    23:00 +22°C° 0 mm 3 mps 750 mmHg 67%

    Day after tomorrow, 26 July, Friday

    Time Temperature Precipitation Wind Pressure Humidity
    00:00 +22°C° 0 mm 3 mps 750 mmHg 71%
    01:00 +21°C° 0 mm 3 mps 750 mmHg 71%
    02:00 +21°C° 0 mm 2 mps 750 mmHg 72%
    03:00 +21°C° 0 mm 2 mps 750 mmHg 72%
    04:00 +21°C° 0 mm 2 mps 750 mmHg 73%
    05:00 +21°C° 0 mm 2 mps 750 mmHg 73%
    06:00 +21°C° 0 mm 2 mps 750 mmHg 74%
    07:00 +22°C° 0 mm 3 mps 750 mmHg 67%
    08:00 +25°C° 0 mm 4 mps 750 mmHg 60%
    09:00 +27°C° 0 mm 5 mps 750 mmHg 52%
    10:00 +28°C° 0 mm 5 mps 750 mmHg 49%
    11:00 +29°C° 0 mm 5 mps 750 mmHg 45%
    12:00 +30°C° 0 mm 5 mps 750 mmHg 41%
    13:00 +30°C° 0 mm 5 mps 750 mmHg 40%
    14:00 +30°C° 0 mm 6 mps 750 mmHg 40%
    15:00 +30°C° 0 mm 6 mps 750 mmHg 40%
    16:00 +30°C° 0 mm 5 mps 750 mmHg 42%
    17:00 +29°C° 0 mm 5 mps 750 mmHg 43%
    18:00 +29°C° 0 mm 5 mps 750 mmHg 45%
    19:00 +28°C° 0 mm 4 mps 750 mmHg 49%
    20:00 +26°C° 0 mm 4 mps 751 mmHg 53%
    21:00 +25°C° 0 mm 4 mps 751 mmHg 58%
    22:00 +24°C° 0 mm 3 mps 751 mmHg 61%
    23:00 +22°C° 0 mm 3 mps 751 mmHg 65%

    27 July, Saturday

    Time Temperature Precipitation Wind Pressure Humidity
    00:00 +22°C° 0 mm 3 mps 751 mmHg 68%
    01:00 +21°C° 0 mm 2 mps 750 mmHg 69%
    02:00 +21°C° 0 mm 2 mps 750 mmHg 70%
    03:00 +21°C° 0 mm 2 mps 750 mmHg 70%
    04:00 +21°C° 0 mm 2 mps 750 mmHg 70%
    05:00 +21°C° 0 mm 2 mps 750 mmHg 69%
    06:00 +21°C° 0 mm 2 mps 750 mmHg 68%
    07:00 +24°C° 0 mm 2 mps 750 mmHg 60%
    08:00 +26°C° 0 mm 3 mps 750 mmHg 51%
    09:00 +29°C° 0 mm 4 mps 750 mmHg 43%
    10:00 +29°C° 0 mm 4 mps 750 mmHg 40%
    11:00 +30°C° 0 mm 4 mps 750 mmHg 37%
    12:00 +32°C° 0 mm 5 mps 750 mmHg 34%
    13:00 +32°C° 0 mm 5 mps 749 mmHg 34%
    14:00 +32°C° 0 mm 4 mps 749 mmHg 33%
    15:00 +33°C° 0 mm 4 mps 749 mmHg 32%
    16:00 +32°C° 0 mm 4 mps 749 mmHg 33%
    17:00 +32°C° 0 mm 4 mps 749 mmHg 34%
    18:00 +30°C° 0 mm 4 mps 748 mmHg 35%
    19:00 +29°C° 0 mm 4 mps 748 mmHg 40%
    20:00 +27°C° 0 mm 3 mps 748 mmHg 44%
    21:00 +25°C° 0 mm 2 mps 748 mmHg 48%
    22:00 +25°C° 0 mm 2 mps 748 mmHg 50%
    23:00 +24°C° 0 mm 2 mps 748 mmHg 51%

    28 July, Sunday

    Time Temperature Precipitation Wind Pressure Humidity
    00:00 +23°C° 0 mm 1 mps 748 mmHg 53%
    01:00 +23°C° 0 mm 1 mps 748 mmHg 56%
    02:00 +23°C° 0 mm 1 mps 747 mmHg 58%
    03:00 +22°C° 0 mm 1 mps 747 mmHg 61%
    04:00 +21°C° 0 mm 2 mps 747 mmHg 64%
    05:00 +21°C° 0 mm 2 mps 747 mmHg 67%
    06:00 +23°C° 0 mm 2 mps 747 mmHg 69%
    07:00 +25°C° 0 mm 2 mps 747 mmHg 63%
    08:00 +27°C° 0 mm 3 mps 747 mmHg 56%
    09:00 +29°C° 0 mm 3 mps 747 mmHg 49%
    10:00 +30°C° 0 mm 3 mps 747 mmHg 45%
    11:00 +32°C° 0 mm 4 mps 746 mmHg 41%
    12:00 +33°C° 0 mm 4 mps 746 mmHg 37%
    13:00 +33°C° 0 mm 4 mps 746 mmHg 37%
    14:00 +33°C° 0 mm 5 mps 745 mmHg 38%
    15:00 +33°C° 0 mm 5 mps 745 mmHg 38%
    16:00 +33°C° 0 mm 5 mps 745 mmHg 40%
    17:00 +32°C° 0 mm 5 mps 745 mmHg 41%
    18:00 +32°C° 0 mm 4 mps 744 mmHg 43%
    19:00 +29°C° 0.4 mm 4 mps 744 mmHg 52%
    20:00 +27°C° 0.4 mm 4 mps 745 mmHg 60%
    21:00 +25°C° 0.4 mm 5 mps 745 mmHg 69%
    22:00 +23°C° 0.2 mm 4 mps 744 mmHg 72%
    23:00 +24°C° 0.2 mm 3 mps 744 mmHg 75%

    29 July, Monday

    Time Temperature Precipitation Wind Pressure Humidity
    00:00 +22°C° 0.2 mm 3 mps 744 mmHg 77%
    01:00 +23°C° 0 mm 2 mps 744 mmHg 78%
    02:00 +23°C° 0 mm 2 mps 744 mmHg 79%
    03:00 +21°C° 0 mm 2 mps 744 mmHg 79%
    04:00 +21°C° 0.1 mm 2 mps 744 mmHg 79%
    05:00 +22°C° 0.1 mm 1 mps 744 mmHg 79%
    06:00 +22°C° 0.1 mm 1 mps 744 mmHg 79%
    07:00 +23°C° 0.1 mm 2 mps 744 mmHg 77%
    08:00 +22°C° 0.1 mm 3 mps 745 mmHg 74%
    09:00 +23°C° 0.1 mm 4 mps 745 mmHg 71%
    10:00 +24°C° 0.7 mm 3 mps 745 mmHg 70%
    11:00 +25°C° 0.7 mm 3 mps 745 mmHg 68%
    12:00 +25°C° 0.7 mm 3 mps 745 mmHg 67%
    13:00 +23°C° 0.7 mm 4 mps 745 mmHg 68%
    14:00 +23°C° 0.7 mm 4 mps 745 mmHg 69%
    15:00 +22°C° 0.7 mm 5 mps 745 mmHg 70%
    16:00 +22°C° 0.1 mm 4 mps 745 mmHg 69%
    17:00 +21°C° 0.1 mm 4 mps 745 mmHg 68%
    18:00 +21°C° 0.1 mm 4 mps 745 mmHg 68%
    19:00 +20°C° 0 mm 4 mps 746 mmHg 70%
    20:00 +19°C° 0 mm 3 mps 746 mmHg 72%
    21:00 +19°C° 0 mm 3 mps 746 mmHg 74%
    22:00 +18°C° 0 mm 3 mps 746 mmHg 74%
    23:00 +18°C° 0 mm 3 mps 747 mmHg 75%
    Show more